Time,TemperatureF,DewpointF,PressureIn,WindDirection,WindDirectionDegrees,WindSpeedMPH,WindSpeedGustMPH,Humidity,HourlyPrecipIn,Conditions,Clouds,dailyrainin,SolarRadiationWatts/m^2,SoftwareType,DateUTC
2013-01-30 00:01:00,43.0,27.0,-100.00,ESE,106,6.0,12.0,53,-99.99,,,0.00,0.000000,,2013-01-30 08:01:00,
2013-01-30 00:11:00,43.0,27.0,-100.00,ESE,106,6.0,12.0,53,-99.99,,,0.00,0.000000,,2013-01-30 08:11:00,
2013-01-30 00:21:00,43.0,27.0,-100.00,ESE,106,6.0,12.0,53,-99.99,,,0.00,0.000000,,2013-01-30 08:21:00,
2013-01-30 00:52:00,33.0,28.0,-100.00,NW,326,1.0,11.0,80,0.00,,,0.00,0.000000,,2013-01-30 08:52:00,
2013-01-30 01:52:00,40.0,26.0,-100.00,ENE,73,2.0,7.0,56,-99.99,,,0.00,0.000000,,2013-01-30 09:52:00,
2013-01-30 02:01:00,40.0,26.0,-100.00,ENE,73,2.0,7.0,56,-99.99,,,0.00,0.000000,,2013-01-30 10:01:00,
2013-01-30 02:11:00,40.0,26.0,-100.00,ENE,73,2.0,7.0,56,-99.99,,,0.00,0.000000,,2013-01-30 10:11:00,
2013-01-30 02:21:00,40.0,26.0,-100.00,ENE,73,2.0,7.0,56,-99.99,,,0.00,0.000000,,2013-01-30 10:21:00,
2013-01-30 02:52:00,39.0,25.0,-100.00,East,88,5.0,10.0,56,0.00,,,0.00,0.000000,,2013-01-30 10:52:00,
2013-01-30 03:02:00,39.0,25.0,-100.00,East,88,5.0,10.0,56,0.00,,,0.00,0.000000,,2013-01-30 11:02:00,
2013-01-30 03:11:00,39.0,25.0,-100.00,East,88,5.0,10.0,56,0.00,,,0.00,0.000000,,2013-01-30 11:11:00,
2013-01-30 03:21:00,39.0,25.0,-100.00,East,88,5.0,10.0,56,0.00,,,0.00,0.000000,,2013-01-30 11:21:00,
2013-01-30 03:52:00,37.0,23.0,-100.00,NE,56,2.0,11.0,56,0.00,,,0.00,0.000000,,2013-01-30 11:52:00,
2013-01-30 04:02:00,37.0,23.0,-100.00,NE,56,2.0,11.0,56,0.00,,,0.00,0.000000,,2013-01-30 12:02:00,
2013-01-30 04:12:00,37.0,23.0,-100.00,NE,56,2.0,11.0,56,0.00,,,0.00,0.000000,,2013-01-30 12:12:00,
2013-01-30 04:21:00,37.0,23.0,-100.00,NE,56,2.0,11.0,56,0.00,,,0.00,0.000000,,2013-01-30 12:21:00,
2013-01-30 05:12:00,34.0,23.0,-100.00,NNE,27,5.0,9.0,64,0.00,,,0.00,0.000000,,2013-01-30 13:12:00,
2013-01-30 05:22:00,34.0,23.0,-100.00,NNE,27,5.0,9.0,64,0.00,,,0.00,0.000000,,2013-01-30 13:22:00,
2013-01-30 05:53:00,36.0,23.0,-100.00,NE,46,5.0,11.0,59,0.00,,,0.00,0.000000,,2013-01-30 13:53:00,
2013-01-30 06:02:00,36.0,23.0,-100.00,NE,46,5.0,11.0,59,0.00,,,0.00,0.000000,,2013-01-30 14:02:00,
2013-01-30 06:11:00,36.0,23.0,-100.00,NE,46,5.0,11.0,59,0.00,,,0.00,0.000000,,2013-01-30 14:11:00,
2013-01-30 06:22:00,36.0,23.0,-100.00,NE,46,5.0,11.0,59,0.00,,,0.00,0.000000,,2013-01-30 14:22:00,
2013-01-30 06:53:00,37.0,26.0,-100.00,NE,39,6.0,10.0,65,0.00,,,0.00,0.000000,,2013-01-30 14:53:00,
2013-01-30 07:03:00,37.0,26.0,-100.00,NE,39,6.0,10.0,65,0.00,,,0.00,0.000000,,2013-01-30 15:03:00,
2013-01-30 07:12:00,37.0,26.0,-100.00,NE,39,6.0,10.0,65,0.00,,,0.00,0.000000,,2013-01-30 15:12:00,
2013-01-30 07:22:00,37.0,26.0,-100.00,NE,39,6.0,10.0,65,0.00,,,0.00,0.000000,,2013-01-30 15:22:00,
2013-01-30 07:53:00,40.0,27.0,-100.00,ENE,58,4.0,9.0,59,0.00,,,0.00,13.000000,,2013-01-30 15:53:00,
2013-01-30 08:03:00,40.0,27.0,-100.00,ENE,58,4.0,9.0,59,0.00,,,0.00,13.000000,,2013-01-30 16:03:00,
2013-01-30 08:12:00,40.0,27.0,-100.00,ENE,58,4.0,9.0,59,0.00,,,0.00,13.000000,,2013-01-30 16:12:00,
2013-01-30 08:22:00,40.0,27.0,-100.00,ENE,58,4.0,9.0,59,0.00,,,0.00,13.000000,,2013-01-30 16:22:00,
2013-01-30 08:52:00,47.0,27.0,-100.00,NE,45,3.0,9.0,46,0.00,,,0.00,168.000000,,2013-01-30 16:52:00,
2013-01-30 09:02:00,47.0,27.0,-100.00,NE,45,3.0,9.0,46,0.00,,,0.00,168.000000,,2013-01-30 17:02:00,
2013-01-30 09:12:00,47.0,27.0,-100.00,NE,45,3.0,9.0,46,0.00,,,0.00,168.000000,,2013-01-30 17:12:00,
2013-01-30 09:22:00,47.0,27.0,-100.00,NE,45,3.0,9.0,46,0.00,,,0.00,168.000000,,2013-01-30 17:22:00,
2013-01-30 09:53:00,48.0,26.0,-100.00,ENE,59,6.0,9.0,42,0.00,,,0.00,379.000000,,2013-01-30 17:53:00,
2013-01-30 10:02:00,48.0,26.0,-100.00,ENE,59,6.0,9.0,42,0.00,,,0.00,379.000000,,2013-01-30 18:02:00,
2013-01-30 10:12:00,48.0,26.0,-100.00,ENE,59,6.0,9.0,42,0.00,,,0.00,379.000000,,2013-01-30 18:12:00,
2013-01-30 10:22:00,48.0,26.0,-100.00,ENE,59,6.0,9.0,42,0.00,,,0.00,379.000000,,2013-01-30 18:22:00,
2013-01-30 10:53:00,53.0,25.0,-100.00,ENE,60,2.0,9.0,33,0.00,,,0.00,558.000000,,2013-01-30 18:53:00,
2013-01-30 11:02:00,53.0,25.0,-100.00,ENE,60,2.0,9.0,33,0.00,,,0.00,558.000000,,2013-01-30 19:02:00,
2013-01-30 11:12:00,53.0,25.0,-100.00,ENE,60,2.0,9.0,33,0.00,,,0.00,558.000000,,2013-01-30 19:12:00,
2013-01-30 11:21:00,53.0,25.0,-100.00,ENE,60,2.0,9.0,33,0.00,,,0.00,558.000000,,2013-01-30 19:21:00,
2013-01-30 11:53:00,57.0,26.0,-100.00,East,92,4.0,9.0,30,0.00,,,0.00,681.000000,,2013-01-30 19:53:00,
2013-01-30 12:03:00,57.0,26.0,-100.00,East,92,4.0,9.0,30,0.00,,,0.00,681.000000,,2013-01-30 20:03:00,
2013-01-30 12:11:00,57.0,26.0,-100.00,East,92,4.0,9.0,30,0.00,,,0.00,681.000000,,2013-01-30 20:11:00,
2013-01-30 12:21:00,57.0,26.0,-100.00,East,92,4.0,9.0,30,0.00,,,0.00,681.000000,,2013-01-30 20:21:00,
2013-01-30 12:53:00,57.0,27.0,-100.00,ENE,65,9.0,15.0,31,0.00,,,0.00,733.000000,,2013-01-30 20:53:00,
2013-01-30 13:03:00,57.0,27.0,-100.00,ENE,65,9.0,15.0,31,0.00,,,0.00,733.000000,,2013-01-30 21:03:00,
2013-01-30 13:11:00,57.0,27.0,-100.00,ENE,65,9.0,15.0,31,0.00,,,0.00,733.000000,,2013-01-30 21:11:00,
2013-01-30 13:22:00,57.0,27.0,-100.00,ENE,65,9.0,15.0,31,0.00,,,0.00,733.000000,,2013-01-30 21:22:00,
2013-01-30 13:52:00,56.0,27.0,-100.00,ESE,109,6.0,18.0,32,0.00,,,0.00,716.000000,,2013-01-30 21:52:00,
2013-01-30 14:02:00,56.0,27.0,-100.00,ESE,109,6.0,18.0,32,0.00,,,0.00,716.000000,,2013-01-30 22:02:00,
2013-01-30 14:11:00,56.0,27.0,-100.00,ESE,109,6.0,18.0,32,0.00,,,0.00,716.000000,,2013-01-30 22:11:00,
2013-01-30 14:22:00,56.0,27.0,-100.00,ESE,109,6.0,18.0,32,0.00,,,0.00,716.000000,,2013-01-30 22:22:00,
2013-01-30 14:53:00,58.0,25.0,-100.00,ENE,74,2.0,9.0,28,0.00,,,0.00,628.000000,,2013-01-30 22:53:00,
2013-01-30 15:02:00,58.0,25.0,-100.00,ENE,74,2.0,9.0,28,0.00,,,0.00,628.000000,,2013-01-30 23:02:00,
2013-01-30 15:11:00,58.0,25.0,-100.00,ENE,74,2.0,9.0,28,0.00,,,0.00,628.000000,,2013-01-30 23:11:00,
2013-01-30 15:22:00,58.0,25.0,-100.00,ENE,74,2.0,9.0,28,0.00,,,0.00,628.000000,,2013-01-30 23:22:00,
2013-01-30 15:52:00,59.0,25.0,-100.00,WNW,295,2.0,8.0,27,0.00,,,0.00,480.000000,,2013-01-30 23:52:00,
2013-01-30 16:02:00,59.0,25.0,-100.00,WNW,295,2.0,8.0,27,0.00,,,0.00,480.000000,,2013-01-31 00:02:00,
2013-01-30 16:11:00,59.0,25.0,-100.00,WNW,295,2.0,8.0,27,0.00,,,0.00,480.000000,,2013-01-31 00:11:00,
2013-01-30 16:53:00,49.0,27.0,-100.00,SE,132,2.0,9.0,42,0.00,,,0.00,140.000000,,2013-01-31 00:53:00,
2013-01-30 17:02:00,49.0,27.0,-100.00,SE,132,2.0,9.0,42,0.00,,,0.00,140.000000,,2013-01-31 01:02:00,
2013-01-30 17:11:00,49.0,27.0,-100.00,SE,132,2.0,9.0,42,0.00,,,0.00,140.000000,,2013-01-31 01:11:00,
2013-01-30 17:21:00,49.0,27.0,-100.00,SE,132,2.0,9.0,42,0.00,,,0.00,140.000000,,2013-01-31 01:21:00,
2013-01-30 17:52:00,43.0,26.0,-100.00,NNE,15,0.0,3.0,51,0.00,,,0.00,13.000000,,2013-01-31 01:52:00,
2013-01-30 18:01:00,43.0,26.0,-100.00,NNE,15,0.0,3.0,51,0.00,,,0.00,13.000000,,2013-01-31 02:01:00,
2013-01-30 18:11:00,43.0,26.0,-100.00,NNE,15,0.0,3.0,51,0.00,,,0.00,13.000000,,2013-01-31 02:11:00,
2013-01-30 18:21:00,43.0,26.0,-100.00,NNE,15,0.0,3.0,51,0.00,,,0.00,13.000000,,2013-01-31 02:21:00,
2013-01-30 19:02:00,44.0,29.0,-100.00,NW,315,4.0,7.0,55,0.00,,,0.00,0.000000,,2013-01-31 03:02:00,
2013-01-30 19:11:00,44.0,29.0,-100.00,NW,315,4.0,7.0,55,0.00,,,0.00,0.000000,,2013-01-31 03:11:00,
2013-01-30 19:21:00,44.0,29.0,-100.00,NW,315,4.0,7.0,55,0.00,,,0.00,0.000000,,2013-01-31 03:21:00,
2013-01-30 19:52:00,42.0,27.0,-100.00,NW,326,5.0,8.0,56,0.00,,,0.00,0.000000,,2013-01-31 03:52:00,
2013-01-30 20:02:00,42.0,27.0,-100.00,NW,326,5.0,8.0,56,0.00,,,0.00,0.000000,,2013-01-31 04:02:00,
2013-01-30 20:11:00,42.0,27.0,-100.00,NW,326,5.0,8.0,56,0.00,,,0.00,0.000000,,2013-01-31 04:11:00,
2013-01-30 20:22:00,42.0,27.0,-100.00,NW,326,5.0,8.0,56,0.00,,,0.00,0.000000,,2013-01-31 04:22:00,
2013-01-30 20:52:00,42.0,29.0,-100.00,NW,318,4.0,7.0,59,0.00,,,0.00,0.000000,,2013-01-31 04:52:00,
2013-01-30 21:03:00,42.0,29.0,-100.00,NW,318,4.0,7.0,59,0.00,,,0.00,0.000000,,2013-01-31 05:03:00,
2013-01-30 21:11:00,42.0,29.0,-100.00,NW,318,4.0,7.0,59,0.00,,,0.00,0.000000,,2013-01-31 05:11:00,
2013-01-30 21:21:00,42.0,29.0,-100.00,NW,318,4.0,7.0,59,0.00,,,0.00,0.000000,,2013-01-31 05:21:00,